FENGYUN 1C DEB, 31492

Orbit data source: Space-Track

FENGYUN 1C DEB, 31492 is space debris in SSO originally from a launch on Mon, 10 May 1999 UTC launched from the Taiyaun Space Center, China (TSC). Fengyun 1C debris stems from the Chinese weather satellite Fengyun-1C, which was intentionally destroyed by a Chinese anti-satellite missile in 2007. This event dramatically increased the amount of space debris, with thousands of trackable fragments posing hazards to satellites and human spaceflight. The Fengyun 1C debris cloud has become a focal point in discussions about space sustainability and the need for international regulations to prevent the creation of new debris.

Loading next visibility...
Identifier
31492, 1999-025BWF
Orbit
SSO
Country
Flag of CNCN / PRC
Related business
Manufacturer
Unknown
Mission
Spacecraft
Bus & Motor
Unknown
Mass
Unknown
Launch date (UTC)
1999-05-10 (27 years ago)
Launch vehicle
Unknown
Launch site
Taiyaun Space Center, China (TSC)
Object type
Payload
Rocket body
Debris
Shape & HBR
Unknown shape, 0.1 m
Radar Cross Section
Medium (>0.1 m² and <1 m²)

Expand to show TLE details & history
Last TLE update: 3 days ago

TLE from 3 days ago
0 FENGYUN 1C DEB
1 31492U 99025BWF 26166.48813618  .00018251  00000-0  23750-2 0  9990
2 31492  98.8611 355.0911 0054244 148.6333 211.8130 14.79661229992312
Epoch: 2026-06-15T11:42Z
TLE epoch observation values (Epoch: 2026-06-15T11:42:54.965Z)
Latitude
-0.00009°
Longitude
-84.41171°
Altitude
665.754 km
Speed
7.507 km/s
True Right ascension
23h 40m 21s
True Declination
0° 00' 00"
Sunlit
Object was in daylight at epoch
Visualization orbit readout
Latitude
Unknown
Longitude
Unknown
Altitude
Unknown
Speed
Unknown
Apparent Right ascension
Unknown
Apparent Declination
Unknown
Sunlit
N/A
Visualization observer readout
Local Sidereal Time
10:30:30
Azimuth
Unknown
Elevation
Unknown
Doppler factor
Unknown
Orbital elements
Apogee altitude
665.482 km
Perigee altitude
589.479 km
Semi-major axis
7,005.617 km
Eccentricity
0.00542
Inclination
98.8611°
RAAN
355.0911°
Arg. of periapsis
148.6333°
True anomaly
211.48721°
Mean anomaly
211.813°
Eccentric anomaly
211.64992°
Mean motion
3.70146 °/min
Orbital period
97.26 mins
BSTAR
0.002375
Loading maneuver chart data...
Computing Atmospheric mass density...

Documentation

Showing up to 5 results
|